Wind_Speed
7 8 9 9 11 12 14 14 15 15 16 17 19 19 19 19 19 20 21 22 22 22 23 23 24 25 25 25 26 26 27 28 29 30 30 31 31 32 33 33 34 35 35
8 8 10 10 11 13 14 16 16 16 16 17 18 18 19 19 20 21 22 23 24 24 25 25 26 27 27 28 28 29 30 30 31 32 33 34 34 35 36 37 37 38 38
9 10 11 12 12 13 14 15 16 15 15 16 16 17 17 19 20 22 23 23 25 25 26 27 27 28 29 30 30 31 33 33 34 35 36 37 38 38 39 40 41 41 42
13 13 12 13 14 14 15 16 16 16 16 16 16 16 17 19 20 21 22 24 25 26 27 28 30 30 30 31 32 33 34 35 36 38 39 40 40 41 42 43 44 45 45
17 17 16 16 16 17 17 17 17 17 16 16 16 17 17 18 19 21 22 25 26 27 28 29 30 31 31 32 33 35 36 37 39 40 41 43 44 45 46 47 48 48 49
21 21 20 20 20 20 20 19 19 19 18 18 18 18 18 19 20 21 23 24 25 27 28 30 31 32 33 34 36 38 39 41 42 44 45 47 48 49 50 51 52 52 53
26 25 24 24 24 24 23 23 22 22 21 21 21 21 22 22 23 24 25 26 27 28 29 31 33 35 36 37 39 42 44 45 46 48 49 51 52 54 55 56 57 57 58
31 30 29 29 28 27 27 26 25 25 24 24 24 24 25 26 27 28 28 29 31 32 33 35 37 38 40 42 44 46 47 49 51 52 54 56 57 59 60 61 62 63 64
34 33 31 33 32 31 31 30 29 29 28 27 27 28 29 30 31 32 33 34 36 37 39 40 41 43 44 46 48 49 51 53 54 56 58 60 62 63 65 66 67 67 68
34 34 34 35 35 34 32 32 32 32 31 31 31 32 33 34 35 36 38 39 41 42 43 45 46 48 49 51 52 54 55 57 59 60 62 64 66 67 69 69 70 71 71
38 38 38 37 38 37 37 37 36 35 34 34 36 37 38 39 40 41 42 44 46 47 48 50 51 53 54 55 57 60 61 62 64 65 67 68 69 70 71 72 72 72 72
40 39 39 40 39 40 40 39 38 39 38 38 40 41 43 44 46 47 47 48 49 51 53 54 56 57 58 60 61 63 64 65 67 68 69 70 70 71 71 71 70 70 70
40 41 42 42 42 42 41 41 41 42 42 43 45 46 47 49 50 51 52 53 54 55 56 58 59 60 61 63 64 65 66 67 68 69 69 70 69 69 69 68 68 68 67
41 42 43 44 43 43 43 44 45 45 46 47 49 50 51 52 53 54 56 56 57 58 59 60 62 63 64 65 66 66 67 68 67 68 68 68 67 66 66 65 66 65 65
44 44 45 45 44 45 45 47 48 49 50 51 53 53 54 56 57 58 59 59 59 59 60 62 63 64 65 65 66 66 66 66 66 65 65 64 64 64 64 64 64 63 62
46 47 48 48 49 49 50 52 53 53 54 54 54 56 58 59 60 61 61 61 61 61 61 61 63 63 64 64 64 64 64 63 62 62 62 62 62 62 61 61 60 58 57
49 49 51 52 53 53 54 56 56 57 57 58 59 60 60 61 61 61 61 61 61 61 61 61 62 62 62 62 61 61 61 60 60 60 60 59 59 58 57 56 55 54 52
51 52 54 55 56 57 57 58 59 59 60 61 61 61 61 61 61 61 60 60 60 60 60 59 59 60 60 59 59 58 58 58 57 57 56 56 55 54 53 51 50 49 48
55 56 57 57 58 58 59 59 60 61 61 62 62 62 62 61 61 60 60 59 59 58 58 57 57 57 57 57 56 56 55 55 54 53 52 51 50 49 47 45 44 43 43
56 57 57 57 58 59 60 60 60 61 61 61 61 61 61 61 60 59 58 58 57 56 56 55 55 55 55 54 53 52 51 50 49 48 46 45 43 41 40 39 38 38 39
55 56 56 57 58 58 59 59 60 60 60 60 60 60 59 58 58 57 56 55 54 54 54 53 52 51 50 49 48 47 45 43 41 40 38 37 36 36 35 35 35 36 36
52 53 54 55 56 57 58 58 58 58 57 57 57 56 55 54 54 53 53 52 51 50 49 48 47 45 44 43 41 39 37 34 32 32 31 31 32 32 32 32 33 34 34
50 51 53 54 55 55 55 55 55 55 54 54 53 52 50 49 48 48 47 47 46 45 43 41 39 37 35 34 32 30 29 26 25 25 26 27 28 29 29 29 30 30 30
49 50 51 52 52 52 51 52 51 51 49 48 47 46 45 44 44 42 41 40 39 36 33 30 29 28 26 25 24 22 21 21 22 22 22 23 25 26 27 27 27 27 27
48 48 48 48 48 48 48 47 47 45 44 42 41 40 38 37 36 34 32 30 28 26 24 22 20 19 19 17 16 16 17 18 19 20 20 21 22 23 25 25 25 25 25
44 44 45 45 45 44 44 42 40 38 37 36 34 32 30 28 26 24 22 20 19 17 16 14 14 13 12 12 13 14 15 16 17 18 19 19 20 21 22 24 23 23 23
Wind_Direction
321 329 332 330 331 328 326 328 325 318 313 307 302 298 290 286 282 277 277 278 276 276 276 276 275 274 273 271 270 269 270 270 270 270 270 270 269 269 268 268 267 267 266
309 317 322 322 324 324 323 324 326 319 311 308 302 296 292 288 285 278 275 277 276 275 274 276 275 274 272 272 271 270 270 271 271 271 270 270 270 270 269 268 268 267 267
307 314 317 317 318 320 321 322 325 321 312 309 305 300 295 294 290 282 276 276 276 275 274 275 274 274 273 272 272 272 272 273 272 272 272 272 272 271 270 270 269 268 268
304 309 312 314 314 315 318 320 320 321 317 311 307 304 299 296 292 286 279 276 276 276 276 277 276 276 275 273 273 274 274 274 274 273 273 273 273 272 272 271 271 270 269
296 300 304 307 307 310 311 314 316 317 316 313 308 303 300 295 293 289 286 280 277 278 278 278 278 278 275 274 275 275 275 276 275 275 274 274 273 273 273 273 273 272 272
291 293 295 299 299 302 306 307 308 309 310 308 307 303 300 296 293 290 289 285 281 279 278 278 277 275 275 275 275 275 276 276 276 276 276 276 275 275 275 275 274 274 274
288 288 292 292 292 293 298 301 302 302 302 303 303 300 298 296 292 290 287 285 284 282 281 280 279 276 275 276 276 276 276 276 276 276 276 276 276 276 276 275 275 275 274
287 285 287 289 287 288 290 293 295 296 296 297 296 294 294 293 291 289 287 286 285 284 283 282 280 278 277 277 276 277 277 277 278 278 278 277 277 276 276 276 275 275 275
286 285 286 288 287 286 285 287 291 293 293 293 292 292 291 291 290 289 287 286 285 284 283 282 280 279 279 278 278 277 277 277 278 278 277 277 277 277 277 276 276 276 275
286 287 287 287 286 286 287 287 290 293 290 290 290 290 289 289 289 288 287 286 284 284 283 282 281 280 280 279 279 279 278 278 278 277 277 277 277 277 277 276 276 276 276
285 285 286 286 287 286 288 288 289 290 290 290 290 289 288 288 287 287 285 284 284 283 282 281 281 280 280 280 280 280 279 279 279 278 278 278 278 278 278 278 278 277 277
282 284 286 287 287 288 288 288 288 289 290 290 289 288 288 288 287 286 285 283 283 283 282 282 281 281 281 280 280 280 280 280 279 279 279 279 280 280 280 280 279 279 278
282 284 285 284 286 287 287 287 288 289 289 288 288 287 287 287 286 286 285 284 284 283 283 283 282 282 281 281 281 281 281 281 281 281 281 281 281 282 281 281 281 280 278
283 283 284 284 285 286 286 286 288 288 288 288 288 288 287 286 286 286 286 285 284 284 284 284 283 283 283 282 282 282 282 282 282 282 283 283 283 283 282 282 281 280 279
281 282 283 284 285 286 287 288 288 287 288 289 288 288 288 287 287 287 287 286 285 285 284 284 284 284 284 283 283 283 284 284 284 284 284 284 284 284 283 283 283 282 280
282 284 285 285 286 286 287 288 289 289 290 289 289 288 288 288 288 288 288 287 286 285 285 284 284 284 284 284 284 285 285 285 285 285 285 285 285 285 285 284 284 283 282
281 283 284 284 287 287 287 289 289 290 289 289 289 289 289 289 289 288 287 286 285 285 285 285 285 285 285 285 285 285 285 285 286 286 286 286 286 286 286 285 285 284 283
283 285 286 287 288 288 287 289 290 290 290 290 290 289 289 289 288 288 287 286 286 286 286 285 285 285 285 285 286 286 286 287 287 287 287 287 287 287 287 287 286 285 283
284 285 285 286 287 287 287 288 289 290 290 290 290 289 289 289 289 288 287 287 286 286 286 286 286 286 286 286 286 287 287 287 287 288 288 288 288 288 288 287 286 285 284
284 284 284 285 286 288 289 289 289 290 290 290 289 289 289 289 288 288 287 287 287 287 287 287 287 287 287 287 287 287 287 288 288 289 289 289 289 288 288 288 287 286 285
283 284 286 287 288 289 289 290 289 289 290 290 290 289 289 288 288 287 287 287 287 287 287 288 288 288 287 288 288 288 288 288 289 289 290 290 291 291 291 290 290 289 288
286 287 288 289 289 290 290 290 290 290 290 290 289 289 289 289 289 288 287 287 287 288 288 289 288 288 288 288 289 288 289 289 289 290 291 293 294 294 294 294 293 292 291
289 289 289 289 289 290 290 290 290 290 290 290 290 290 289 289 290 290 289 289 289 290 289 289 289 288 288 288 289 289 290 290 290 292 295 297 298 299 299 299 298 296 295
290 290 290 290 291 290 290 291 291 291 291 291 291 291 290 290 291 291 291 291 292 292 291 290 290 290 289 290 291 291 292 295 298 300 301 303 304 305 306 306 305 302 300
293 293 292 292 291 292 292 292 292 292 292 291 291 292 292 292 293 294 295 294 294 294 293 293 293 294 295 297 297 298 300 303 306 308 310 311 311 313 314 314 313 310 307
295 294 294 293 293 293 293 293 293 293 293 293 293 293 294 295 296 298 299 299 299 300 300 301 303 304 305 307 309 310 311 312 314 314 315 317 318 319 319 320 320 319 316
Height
5891 5890 5889 5887 5885 5883 5881 5879 5876 5874 5871 5869 5867 5866 5866 5865 5865 5864 5864 5864 5863 5862 5862 5861 5860 5860 5859 5859 5859 5858 5858 5857 5856 5856 5855 5854 5854 5853 5853 5852 5852 5852 5852
5888 5887 5886 5884 5882 5880 5878 5875 5873 5870 5868 5866 5863 5862 5861 5860 5859 5859 5859 5858 5857 5857 5856 5855 5854 5854 5853 5853 5852 5851 5851 5850 5849 5848 5848 5847 5846 5846 5845 5844 5844 5843 5843
5885 5884 5882 5881 5879 5876 5874 5871 5869 5866 5864 5862 5860 5857 5856 5855 5854 5854 5853 5852 5851 5850 5849 5849 5848 5847 5846 5845 5845 5844 5843 5842 5841 5840 5839 5838 5838 5837 5836 5835 5834 5834 5834
5880 5880 5878 5877 5874 5872 5870 5868 5865 5863 5860 5858 5856 5854 5852 5850 5849 5848 5847 5846 5845 5844 5843 5842 5841 5839 5838 5838 5837 5836 5835 5833 5832 5831 5830 5829 5828 5827 5826 5825 5824 5824 5823
5875 5874 5873 5871 5869 5867 5865 5863 5861 5859 5856 5854 5851 5849 5848 5846 5844 5842 5841 5840 5839 5838 5836 5835 5834 5832 5831 5830 5829 5827 5826 5824 5823 5821 5820 5819 5817 5816 5815 5814 5813 5812 5812
5869 5868 5866 5865 5863 5862 5860 5858 5856 5854 5852 5850 5848 5845 5843 5841 5839 5837 5835 5834 5833 5831 5829 5828 5826 5825 5823 5822 5820 5819 5817 5815 5813 5811 5809 5808 5806 5805 5803 5802 5800 5800 5799
5861 5860 5859 5858 5856 5855 5853 5852 5850 5849 5847 5845 5843 5841 5839 5836 5834 5832 5830 5828 5826 5824 5822 5820 5818 5816 5815 5813 5811 5809 5807 5804 5802 5800 5797 5795 5793 5792 5790 5788 5787 5786 5785
5854 5852 5852 5850 5849 5847 5846 5845 5844 5842 5841 5839 5837 5835 5833 5831 5828 5826 5823 5821 5819 5816 5814 5812 5809 5807 5805 5803 5800 5798 5796 5793 5790 5787 5785 5782 5780 5778 5775 5773 5772 5770 5769
5846 5845 5844 5843 5841 5839 5838 5837 5836 5835 5833 5832 5830 5828 5826 5824 5821 5819 5816 5813 5810 5807 5804 5802 5799 5797 5794 5791 5789 5786 5784 5780 5777 5774 5771 5768 5765 5762 5760 5757 5755 5753 5752
5838 5837 5835 5834 5833 5830 5829 5828 5827 5826 5825 5823 5821 5819 5817 5815 5812 5810 5807 5804 5800 5797 5794 5791 5787 5785 5782 5779 5776 5773 5770 5766 5763 5759 5755 5752 5749 5745 5742 5740 5737 5735 5733
5829 5827 5826 5825 5823 5821 5820 5819 5818 5817 5815 5814 5812 5810 5807 5805 5802 5800 5797 5793 5790 5786 5782 5778 5775 5772 5768 5765 5761 5758 5754 5750 5747 5743 5739 5735 5731 5728 5724 5721 5719 5717 5714
5821 5819 5817 5816 5814 5812 5811 5810 5808 5807 5805 5803 5801 5799 5796 5793 5791 5788 5784 5781 5777 5773 5769 5765 5761 5758 5754 5750 5746 5742 5738 5734 5730 5726 5721 5717 5713 5710 5706 5703 5700 5697 5695
5812 5810 5808 5807 5805 5803 5802 5800 5798 5796 5794 5792 5789 5786 5783 5780 5777 5774 5771 5767 5764 5759 5754 5749 5745 5742 5738 5733 5729 5725 5721 5716 5712 5708 5704 5700 5696 5692 5688 5685 5681 5679 5676
5803 5801 5798 5797 5795 5793 5791 5788 5786 5784 5782 5779 5776 5773 5770 5766 5763 5759 5756 5752 5748 5744 5739 5733 5728 5725 5721 5716 5712 5707 5703 5699 5695 5690 5686 5682 5678 5674 5670 5666 5663 5660 5657
5794 5791 5789 5786 5784 5782 5779 5777 5775 5772 5769 5766 5763 5759 5755 5751 5747 5743 5740 5736 5733 5729 5724 5717 5712 5707 5702 5698 5694 5690 5685 5681 5677 5673 5668 5664 5660 5656 5652 5648 5644 5641 5638
5783 5781 5778 5776 5772 5769 5767 5765 5762 5758 5755 5751 5747 5744 5740 5736 5731 5727 5723 5719 5715 5712 5708 5702 5695 5690 5685 5681 5677 5672 5668 5664 5660 5656 5651 5647 5643 5639 5635 5631 5627 5623 5620
5773 5770 5767 5763 5760 5757 5754 5751 5747 5744 5740 5736 5732 5728 5724 5719 5715 5710 5706 5701 5697 5693 5690 5685 5679 5674 5669 5665 5660 5656 5652 5648 5643 5639 5635 5631 5626 5622 5618 5614 5611 5607 5604
5762 5758 5755 5751 5748 5744 5741 5737 5733 5729 5725 5720 5716 5711 5707 5703 5698 5693 5689 5684 5680 5676 5673 5669 5663 5658 5653 5649 5645 5641 5636 5632 5628 5624 5619 5615 5611 5607 5603 5599 5596 5592 5589
5750 5746 5743 5739 5734 5730 5726 5722 5718 5713 5709 5704 5700 5695 5690 5686 5681 5676 5672 5668 5663 5659 5655 5652 5648 5642 5638 5633 5630 5626 5622 5617 5613 5609 5605 5601 5597 5593 5589 5585 5582 5579 5575
5738 5734 5730 5725 5720 5716 5711 5707 5702 5697 5692 5688 5683 5678 5673 5669 5664 5660 5655 5651 5647 5643 5639 5636 5632 5627 5623 5619 5615 5612 5608 5603 5599 5595 5592 5588 5585 5581 5577 5573 5570 5566 5563
5725 5720 5716 5711 5706 5701 5696 5691 5686 5681 5676 5671 5666 5662 5657 5652 5647 5643 5639 5635 5631 5628 5624 5620 5617 5613 5609 5605 5602 5598 5595 5592 5587 5584 5581 5577 5574 5570 5566 5563 5559 5555 5551
5711 5707 5702 5697 5691 5686 5681 5675 5670 5665 5660 5655 5650 5646 5641 5636 5632 5627 5624 5620 5617 5613 5610 5606 5603 5599 5596 5593 5590 5587 5584 5582 5578 5575 5572 5568 5565 5561 5557 5553 5549 5545 5541
5698 5693 5688 5682 5677 5671 5666 5661 5655 5650 5645 5640 5636 5631 5626 5622 5618 5614 5610 5606 5603 5600 5598 5595 5592 5588 5586 5583 5581 5578 5575 5573 5571 5568 5565 5561 5556 5552 5548 5544 5540 5535 5531
5685 5680 5674 5669 5663 5657 5651 5646 5641 5636 5631 5627 5622 5618 5614 5610 5606 5602 5599 5595 5592 5590 5587 5584 5582 5580 5578 5576 5573 5572 5569 5567 5564 5561 5558 5554 5550 5545 5541 5536 5532 5527 5523
5672 5666 5660 5655 5649 5643 5638 5633 5628 5623 5619 5615 5611 5607 5603 5600 5596 5593 5590 5587 5584 5582 5580 5578 5576 5574 5572 5570 5568 5566 5564 5562 5559 5555 5552 5548 5544 5539 5534 5530 5525 5520 5515
5658 5653 5647 5642 5636 5630 5626 5621 5616 5612 5608 5604 5601 5598 5594 5592 5589 5586 5584 5581 5579 5577 5575 5574 5572 5570 5568 5567 5565 5563 5560 5558 5554 5551 5548 5544 5540 5535 5530 5525 5520 5514 5509